W4WWT Weather Reports


time (UTC)temp
F
wind
direction
speed
knots
gust
knots
rain 1hr
in
rain 24hr
in
rain mn
in
humidity
%
barometer
mb
20260509053502 53 71 0.0 0.0 0.00 0.00 0.00 98 1021.0
20260509050504 54 159 0.0 0.0 0.00 0.00 0.00 97 1021.0
20260509045002 54 93 0.0 0.0 0.00 0.00 0.00 97 1021.0
20260509044001 54 91 0.0 0.0 0.00 0.00 0.00 97 1021.3
20260509042503 55 26 0.0 0.0 0.00 0.00 0.00 97 1021.3
20260509041502 55 51 0.0 0.0 0.00 0.00 0.00 97 1021.7
20260509040011 55 73 0.0 0.0 0.00 0.00 0.00 97 1022.0
20260509035003 55 74 0.0 0.0 0.00 0.00 0.00 97 1021.7
20260509033502 55 178 0.0 0.0 0.00 0.00 0.00 97 1022.0
20260509032502 55 111 0.0 0.0 0.00 0.00 0.00 96 1022.4
20260509031007 55 80 0.0 0.0 0.00 0.00 0.00 96 1022.4
20260509030003 56 105 0.0 0.0 0.00 0.00 0.00 95 1022.0
20260509024502 56 74 0.0 0.0 0.00 0.00 0.00 95 1022.0
20260509023501 56 74 0.0 0.0 0.00 0.00 0.00 95 1022.0
20260509022001 56 73 0.0 0.0 0.00 0.00 0.00 94 1022.0
20260509020504 56 62 0.0 0.0 0.00 0.00 0.00 94 1022.0
20260509011502 57 85 0.0 0.0 0.00 0.00 0.00 90 1021.3
20260509010002 58 90 0.0 0.0 0.00 0.00 0.00 89 1021.3
20260509003002 59 24 0.0 0.0 0.00 0.00 0.00 86 1021.3
20260509000004 61 100 0.0 0.0 0.00 0.00 0.00 83 1021.3
20260508234502 62 77 0.0 0.0 0.00 0.00 0.00 80 1021.3
20260508233502 62 77 0.0 0.0 0.00 0.00 0.00 78 1021.3
20260508232002 64 111 0.0 0.0 0.00 0.00 0.00 76 1021.3
20260508225501 64 92 0.0 0.0 0.00 0.00 0.00 67 1021.3
20260508224002 65 333 0.0 0.9 0.00 0.00 0.00 65 1021.3
20260508222502 65 32 1.7 1.7 0.00 0.00 0.00 64 1021.3
20260508215502 66 213 0.9 2.6 0.00 0.00 0.00 61 1021.3
20260508214002 66 106 0.0 0.9 0.00 0.00 0.00 61 1021.3
20260508212503 67 116 0.0 1.7 0.00 0.00 0.00 59 1021.3
20260508211503 67 143 0.0 0.9 0.00 0.00 0.00 59 1021.3
20260508210501 67 352 0.0 0.9 0.00 0.00 0.00 56 1021.3
20260508205002 68 70 0.0 0.9 0.00 0.00 0.00 57 1021.7
20260508202501 68 68 0.0 0.9 0.00 0.00 0.00 56 1021.7
20260508201002 68 91 1.7 2.6 0.00 0.00 0.00 56 1021.7
20260508195502 69 94 0.9 3.5 0.00 0.00 0.00 52 1022.0
20260508194002 70 118 0.9 1.7 0.00 0.00 0.00 51 1022.0
20260508191001 70 81 0.9 1.7 0.00 0.00 0.00 47 1022.7
20260508185502 71 243 0.0 0.0 0.00 0.00 0.00 47 1022.7
20260508184002 74 3 0.0 3.5 0.00 0.00 0.00 45 1022.7
20260508182502 73 258 0.0 1.7 0.00 0.00 0.00 43 1023.0
20260508181003 71 249 0.0 2.6 0.00 0.00 0.00 46 1023.4
20260508175502 71 201 2.6 2.6 0.00 0.00 0.00 44 1023.4
20260508174501 72 274 0.9 3.5 0.00 0.00 0.00 49 1023.7
20260508173003 71 219 2.6 2.6 0.00 0.00 0.00 49 1023.7
20260508171502 69 109 0.0 2.6 0.00 0.00 0.00 51 1023.7
20260508170002 69 268 0.0 5.2 0.00 0.00 0.00 52 1024.4
20260508164503 67 104 1.7 2.6 0.00 0.00 0.00 55 1024.7
20260508161503 68 129 3.5 4.3 0.00 0.00 0.00 53 1024.7
20260508160502 68 28 0.0 2.6 0.00 0.00 0.00 58 1025.1
20260508153502 66 298 0.0 3.5 0.00 0.00 0.00 56 1025.1
20260508152501 66 52 1.7 2.6 0.00 0.00 0.00 56 1025.4
20260508151002 66 11 0.0 2.6 0.00 0.00 0.00 62 1025.4
20260508145502 65 6 0.0 2.6 0.00 0.00 0.00 61 1025.4
20260508144502 64 114 0.0 2.6 0.00 0.00 0.00 63 1025.4
20260508143001 64 298 0.0 2.6 0.00 0.00 0.00 64 1025.1
20260508141502 62 112 0.0 2.6 0.00 0.00 0.00 70 1025.4
20260508140002 60 98 0.9 1.7 0.00 0.00 0.00 77 1025.4
20260508134503 55 136 0.0 1.7 0.00 0.00 0.00 89 1025.7
20260508133502 53 62 0.0 0.0 0.00 0.00 0.00 94 1025.7
20260508132003 52 48 0.0 0.0 0.00 0.00 0.00 96 1025.7
20260508125002 50 22 0.0 0.0 0.00 0.00 0.00 100 1025.4
20260508124002 49 132 0.0 0.0 0.00 0.00 0.00 100 1025.4
20260508122503 48 346 0.0 0.0 0.00 0.00 0.00 100 1025.1
20260508121002 47 63 0.0 0.0 0.00 0.00 0.00 100 1024.7
20260508115502 46 112 0.0 0.0 0.00 0.00 0.00 100 1024.4
20260508114002 45 120 0.0 0.0 0.00 0.00 0.00 100 1024.0
20260508112503 45 91 0.0 0.0 0.00 0.00 0.00 100 1023.7
20260508111003 45 104 0.0 0.0 0.00 0.00 0.00 100 1023.7
20260508105502 45 168 0.0 0.0 0.00 0.00 0.00 100 1023.0
20260508103002 45 113 0.0 0.0 0.00 0.00 0.00 99 1022.7
20260508101504 45 93 0.0 0.0 0.00 0.00 0.00 99 1022.7
20260508100502 45 124 0.0 0.0 0.00 0.00 0.00 100 1022.7
20260508095501 46 90 0.0 0.0 0.00 0.00 0.00 99 1022.7
20260508094003 46 68 0.0 0.0 0.00 0.00 0.00 100 1022.7
20260508093001 46 62 0.0 0.0 0.00 0.00 0.00 99 1022.4
20260508090003 46 259 0.0 0.0 0.00 0.00 0.00 99 1022.0
20260508084503 46 207 0.0 0.0 0.00 0.00 0.00 99 1022.0
20260508083002 46 64 0.0 0.0 0.00 0.00 0.00 99 1022.0
20260508082002 46 219 0.0 0.0 0.00 0.00 0.00 99 1022.0
20260508080502 46 84 0.0 0.0 0.00 0.00 0.00 99 1022.0
20260508075502 46 116 0.0 0.0 0.00 0.00 0.00 98 1022.0
20260508074004 47 67 0.0 0.0 0.00 0.00 0.00 98 1022.0
20260508071003 48 71 0.0 0.0 0.00 0.00 0.00 98 1022.0
20260508070002 48 221 0.0 0.0 0.00 0.00 0.00 98 1022.0
20260508064502 48 131 0.0 0.0 0.00 0.00 0.00 98 1022.0
20260508063501 48 45 0.0 0.0 0.00 0.00 0.00 98 1022.0
20260508062001 49 93 0.0 0.0 0.00 0.00 0.00 98 1022.0
20260508060502 49 137 0.0 0.0 0.00 0.00 0.00 98 1022.0
20260508055002 49 47 0.0 0.0 0.00 0.00 0.00 97 1022.0
20260508054002 50 46 0.0 0.0 0.00 0.00 0.00 97 1022.0